• Join FlightAware (Why Join?)
  • Login
  • US Flag 
09:37PM EDT


 

Airport Tracker/Info


-or-


 

Live Flight TrackerFlight Track Log ✈ N193DC ✈ 19-Jul-2013 ✈ KCAK - KOSU

Flight Track Log - Related Links

Times and Time Zones

All times are in EDT time to prevent confusion due to time zone crossing. See the N193DC flight status page for this flight to view local times or setup timezone preferences in your user account.

Time Position Orientation Groundspeed Altitude Reporting Facility
EDT Latitude Longitude Course Direction KTS MPH feet Rate Location/Type
07:14PM 40.8164 -81.6406 237° Southwest  Level Estimated
07:15PM 40.7999 -81.6734 236° Southwest  Level Estimated
07:16PM 40.7834 -81.7062 236° Southwest  Level Estimated
07:16PM 40.7953 -81.6656 236° Southwest 85 98 5,900  Level Indianapolis Center
07:17PM 40.7669 -81.7389 236° Southwest  Level Estimated
07:17PM 40.7764 -81.7033 237° Southwest 102 117 5,900  Level Indianapolis Center
07:18PM 40.7504 -81.7717 236° Southwest  Level Estimated
07:18PM 40.7575 -81.7397 236° Southwest 114 131 6,000  Level Indianapolis Center
07:19PM 40.7339 -81.8044 236° Southwest  Level Estimated
07:19PM 40.7406 -81.7758 238° Southwest 115 132 6,000  Level Indianapolis Center
07:20PM 40.7174 -81.8371 236° Southwest  Level Estimated
07:20PM 40.7222 -81.8108 235° Southwest 115 132 6,000  Level Indianapolis Center
07:21PM 40.7009 -81.8698 236° Southwest  Level Estimated
07:21PM 40.7039 -81.8475 237° Southwest 118 136 6,000  Level Indianapolis Center
07:22PM 40.6843 -81.9024 236° Southwest  Level Estimated
07:22PM 40.6864 -81.8828 237° Southwest 116 133 6,000  Level Indianapolis Center
07:24PM 40.6692 -81.9175 237° Southwest 113 130 6,000  Level Indianapolis Center
07:25PM 40.6519 -81.9547 239° Southwest 116 133 6,000  Level Indianapolis Center
07:26PM 40.6336 -81.9917 237° Southwest 118 136 6,000  Level Indianapolis Center
07:27PM 40.6153 -82.0250 234° Southwest 112 129 6,000  Level Indianapolis Center
07:28PM 40.5969 -82.0600 235° Southwest 114 131 6,000  Level Indianapolis Center
07:29PM 40.5808 -82.0967 240° Southwest 114 131 6,000  Level Indianapolis Center
07:30PM 40.5619 -82.1311 234° Southwest 114 131 6,000  Level Indianapolis Center
07:30PM 40.5444 -82.1636 235° Southwest 118 136 6,000  Level Indianapolis Center
07:32PM 40.5239 -82.2072 238° Southwest 114 131 6,000  Level Indianapolis Center
07:33PM 40.5042 -82.2419 233° Southwest 116 133 6,000  Level Indianapolis Center
07:34PM 40.4825 -82.2725 227° Southwest 119 137 6,000  Level Indianapolis Center
07:35PM 40.4586 -82.3058 227° Southwest 119 137 6,000  Level Indianapolis Center
07:36PM 40.4356 -82.3392 228° Southwest 122 140 6,000  Level Indianapolis Center
07:37PM 40.4136 -82.3708 228° Southwest 119 137 6,000 -120 Level Indianapolis Center
07:38PM 40.3914 -82.4061 230° Southwest 121 139 5,800 -420 Descending Indianapolis Center
07:39PM 40.3667 -82.4389 225° Southwest 126 145 5,200 -600 Descending Indianapolis Center
07:40PM 40.3439 -82.4736 229° Southwest 124 143 4,600 -600 Descending Indianapolis Center
07:41PM 40.3161 -82.5131 227° Southwest 124 143 4,000 -300 Descending Indianapolis Center
07:42PM 40.2964 -82.5458 232° Southwest 118 136 4,000  Level Indianapolis Center
07:43PM 40.2750 -82.5725 224° Southwest 110 127 4,000  Level Indianapolis Center
07:44PM 40.2533 -82.6022 226° Southwest 110 127 4,000  Level Indianapolis Center
07:45PM 40.2314 -82.6344 228° Southwest 109 125 4,000  Level Indianapolis Center
07:46PM 40.2106 -82.6661 229° Southwest 111 128 4,000  Level Indianapolis Center
07:47PM 40.1919 -82.6994 234° Southwest 111 128 4,000 -360 Level Indianapolis Center
07:48PM 40.1669 -82.7300 223° Southwest 115 132 3,300 -540 Descending Indianapolis Center
07:49PM 40.1436 -82.7625 227° Southwest 120 138 3,000 -180 Descending Indianapolis Center
07:50PM 40.1197 -82.7975 228° Southwest 108 124 3,000  Level Indianapolis Center